Atwater, CA

5:38 AM PST on January 24, 2017 (GMT -0800)
Castle

Weather History for KMER - November, 2012

Change the Weather History Date:

Monday, November 5, 2012

  Actual Average (KMCE) Record (KMCE)
Temperature  
Mean Temperature 64 °F -  
Max Temperature 82 °F 71 °F 90 °F (2010)
Min Temperature 46 °F 43 °F 36 °F (2003)
Degree Days  
Heating Degree Days 1    
Growing Degree Days 14 (Base 50)    
Moisture  
Dew Point 53 °F    
Average Humidity 89    
Maximum Humidity 100    
Minimum Humidity 35    
Precipitation  
Precipitation 0.00 in - - ()
Sea Level Pressure  
Sea Level Pressure 30.12 in    
Wind  
Wind Speed 2 mph (SE)    
Max Wind Speed 6 mph    
Max Gust Speed -    
Visibility 10 miles    
Events      
Averages and records for this station are not official NWS values.
T = Trace of Precipitation, MM = Missing Value Source: NWS Daily Summary

Daily Weather History Graph

Daily Weather History Graph

Search for Another Location

Airport or City:

Trip Planner

Search our weather history database for the weather conditions in past years. The results will help you decide how hot, cold, wet, or windy it might be!

Date:

Astronomy

Nov. 05, 2012 Rise Set
Actual Time 6:31 AM PST 4:59 PM PST
Civil Twilight 6:04 AM PST 5:26 PM PST
Nautical Twilight 5:33 AM PST 5:57 PM PST
Astronomical Twilight 5:02 AM PST 6:28 PM PST
Moon 10:42 PM PST (11/5) 11:53 AM PST (11/5)
Length of Visible Light 11h 22m
Length of Day
10h 27m
Waning Gibbous, 62% of the Moon is Illuminated
Nov 5
Waning Gibbous
Nov 6
Last Quarter
Nov 13
New
Nov 20
First Quarter
Nov 28
Full

Hourly Weather History & Observations

Time (PST) Temp. Heat Index Dew Point Humidity Pressure Visibility Wind Dir Wind Speed Gust Speed Precip Events Conditions
12:15 AM 53.6 °F - 53.6 °F 100% 30.18 in 10.0 mi ESE 5.8 mph - N/A   Clear
12:35 AM 53.6 °F - 53.6 °F 100% 30.17 in 10.0 mi SE 5.8 mph - N/A   Clear
12:55 AM 53.6 °F - 53.6 °F 100% 30.17 in 10.0 mi SE 4.6 mph - N/A   Clear
1:15 AM 53.6 °F - 53.6 °F 100% 30.17 in 10.0 mi SE 4.6 mph - N/A   Clear
1:35 AM 51.8 °F - 51.8 °F 100% 30.16 in 10.0 mi Calm Calm - N/A   Clear
1:55 AM 51.8 °F - 51.8 °F 100% 30.16 in 10.0 mi Calm Calm - N/A   Clear
2:15 AM 51.8 °F - 51.8 °F 100% 30.16 in 10.0 mi Calm Calm - N/A   Clear
2:35 AM 51.8 °F - 51.8 °F 100% 30.15 in 10.0 mi Calm Calm - N/A   Clear
2:55 AM 51.8 °F - 51.8 °F 100% 30.15 in 10.0 mi North - - N/A   Clear
3:15 AM 51.8 °F - 51.8 °F 100% 30.14 in 10.0 mi Calm Calm - N/A   Clear
3:35 AM 51.8 °F - 51.8 °F 100% 30.14 in 10.0 mi Calm Calm - N/A   Clear
3:55 AM 50.0 °F - 50.0 °F 100% 30.14 in 10.0 mi Calm Calm - N/A   Clear
4:15 AM 50.0 °F - 50.0 °F 100% 30.14 in 10.0 mi Calm Calm - N/A   Clear
4:35 AM 48.2 °F - 48.2 °F 100% 30.15 in 10.0 mi Calm Calm - N/A   Clear
4:55 AM 48.2 °F - 48.2 °F 100% 30.15 in 10.0 mi Calm Calm - N/A   Clear
5:15 AM 48.2 °F - 48.2 °F 100% 30.15 in 10.0 mi Calm Calm - N/A   Clear
5:35 AM 46.4 °F - 46.4 °F 100% 30.16 in 10.0 mi Calm Calm - N/A   Clear
5:55 AM 48.2 °F - 48.2 °F 100% 30.16 in 10.0 mi Calm Calm - N/A   Clear
6:45 AM 48.2 °F - 48.2 °F 100% 30.18 in 10.0 mi Calm Calm - N/A   Clear
7:45 AM 53.6 °F - 53.6 °F 100% 30.20 in 10.0 mi Calm Calm - N/A   Clear
8:45 AM 62.6 °F - 57.2 °F 82% 30.19 in 10.0 mi Variable 4.6 mph - N/A   Clear
9:45 AM 68.0 °F - 57.2 °F 68% 30.18 in 10.0 mi Variable 3.5 mph - N/A   Clear
10:45 AM 71.6 °F - 55.4 °F 57% 30.17 in 10.0 mi Variable 3.5 mph - N/A   Clear
11:45 AM 75.2 °F - 53.6 °F 47% 30.14 in 10.0 mi Variable 3.5 mph - N/A   Clear
12:50 PM 80.6 °F 80.3 °F 53.6 °F 39% 30.10 in 10.0 mi Variable 3.5 mph - N/A   Clear
1:45 PM 80.6 °F 80.3 °F 53.6 °F 39% 30.08 in 10.0 mi Calm Calm - N/A   Clear
2:45 PM 82.4 °F - 51.8 °F 35% 30.06 in 10.0 mi Calm Calm - N/A   Clear
4:45 PM 77.0 °F - 51.8 °F 41% 30.06 in 10.0 mi Calm Calm - N/A   Clear
5:45 PM 69.8 °F - 57.2 °F 64% 30.07 in 10.0 mi Calm Calm - N/A   Clear
6:50 PM 62.6 °F - 57.2 °F 82% 30.07 in 10.0 mi Calm Calm - N/A   Clear
7:45 PM 59.0 °F - 57.2 °F 94% 30.08 in 10.0 mi Calm Calm - N/A   Clear
8:15 PM 57.2 °F - 55.4 °F 94% 30.08 in 10.0 mi East 5.8 mph - N/A   Clear
8:35 PM 57.2 °F - 55.4 °F 94% 30.08 in 10.0 mi ENE 4.6 mph - N/A   Clear
8:45 PM 57.2 °F - 55.4 °F 94% 30.08 in 10.0 mi Calm Calm - N/A   Clear
8:55 PM 57.2 °F - 55.4 °F 94% 30.08 in 10.0 mi East 4.6 mph - N/A   Clear
9:15 PM 57.2 °F - 57.2 °F 100% 30.08 in 10.0 mi Calm Calm - N/A   Clear
9:35 PM 57.2 °F - 57.2 °F 100% 30.08 in 10.0 mi Calm Calm - N/A   Clear
9:55 PM 57.2 °F - 57.2 °F 100% 30.08 in 10.0 mi Calm Calm - N/A   Clear
10:15 PM 55.4 °F - 55.4 °F 100% 30.08 in 10.0 mi Calm Calm - N/A   Clear
10:35 PM 55.4 °F - 55.4 °F 100% 30.08 in 10.0 mi South 3.5 mph - N/A   Clear
10:55 PM 55.4 °F - 55.4 °F 100% 30.08 in 10.0 mi Calm Calm - N/A   Clear
11:15 PM 55.4 °F - 55.4 °F 100% 30.08 in 10.0 mi Calm Calm - N/A   Clear
11:35 PM 53.6 °F - 53.6 °F 100% 30.08 in 10.0 mi Calm Calm - N/A   Clear
11:55 PM 53.6 °F - 53.6 °F 100% 30.08 in 10.0 mi SSW 4.6 mph - N/A   Clear